This is the latest recevied weather packets stored in our database for station/object KD7ECD. If no packets are shown the sender has not sent any weather packets the latest 10 day(s).
| Time | Temp. | Humidity | Pressure | Rain* | Wind** | Luminosity | Snow |
|---|---|---|---|---|---|---|---|
| 1777708555 | 11.11° C | 98% | 1015.8 hPa | 0 mm | - | 0 W/m² | - |
| 1777707951 | 11.11° C | 98% | 1016 hPa | 0 mm | - | 0 W/m² | - |
| 1777707349 | 11.11° C | 98% | 1016 hPa | 0 mm | - | 0 W/m² | - |
| 1777706744 | 10.56° C | 98% | 1015.8 hPa | 0 mm | - | 0 W/m² | - |
| 1777706139 | 10.56° C | 98% | 1015.9 hPa | 0 mm | - | 0 W/m² | - |
| 1777705535 | 10° C | 97% | 1015.8 hPa | 0 mm | - | 0 W/m² | - |
| 1777704931 | 10.56° C | 97% | 1015.8 hPa | 0 mm | - | 0 W/m² | - |
| 1777704327 | 10.56° C | 97% | 1016.2 hPa | 0 mm | - | 0 W/m² | - |
| 1777703727 | 10.56° C | 97% | 1015.9 hPa | 0 mm | - | 0 W/m² | - |
| 1777703128 | 11.11° C | 97% | 1016.1 hPa | 0 mm | - | 0 W/m² | - |
| 1777702524 | 11.11° C | 96% | 1016.1 hPa | 0 mm | - | 0 W/m² | - |
| 1777701921 | 11.11° C | 96% | 1016.1 hPa | 0 mm | - | 0 W/m² | - |
| 1777701322 | 11.11° C | 95% | 1016.1 hPa | 0 mm | - | 0 W/m² | - |
| 1777700719 | 11.67° C | 95% | 1016.1 hPa | 0 mm | - | 0 W/m² | - |
| 1777700118 | 11.67° C | 94% | 1016.1 hPa | 0 mm | - | 0 W/m² | - |
| 1777699514 | 11.67° C | 93% | 1016.3 hPa | 0 mm | - | 0 W/m² | - |
| 1777698910 | 11.67° C | 93% | 1016.2 hPa | 0 mm | - | 0 W/m² | - |
| 1777698309 | 12.22° C | 92% | 1016.1 hPa | 0 mm | - | 0 W/m² | - |
| 1777697709 | 12.22° C | 92% | 1016 hPa | 0 mm | - | 0 W/m² | - |
| 1777697108 | 12.22° C | 91% | 1016 hPa | 0 mm | - | 0 W/m² | - |
| 1777696503 | 12.78° C | 90% | 1015.6 hPa | 0 mm | - | 0 W/m² | - |
| 1777695899 | 12.78° C | 90% | 1015.7 hPa | 0 mm | - | 0 W/m² | - |
| 1777695294 | 12.78° C | 89% | 1015.5 hPa | 0 mm | - | 0 W/m² | - |
| 1777694693 | 13.33° C | 88% | 1015.4 hPa | 0 mm | - | 0 W/m² | - |
| 1777694091 | 13.33° C | 88% | 1015.4 hPa | 0 mm | - | 0 W/m² | - |
* Rain latest hour (hover to see other rain measurements)
** Current wind speed in m/s (hover to see current wind gust speed)